Time,TemperatureF,DewpointF,PressureIn,WindDirection,WindDirectionDegrees,WindSpeedMPH,WindSpeedGustMPH,Humidity,HourlyPrecipIn,Conditions,Clouds,dailyrainin,SoftwareType,DateUTC
2013-03-08 09:21:00,42.5,32.3,30.11,North,355,22.0,22.0,67,0.00,,,0.00,Wunderground v.1.15,2013-03-08 14:21:00,
2013-03-08 09:22:00,42.5,32.3,30.11,North,9,24.0,24.0,67,0.00,,,0.00,Wunderground v.1.15,2013-03-08 14:22:00,
2013-03-08 09:27:00,42.7,33.2,30.12,North,355,17.0,26.0,69,0.00,,,0.00,Wunderground v.1.15,2013-03-08 14:27:00,
2013-03-08 09:32:00,42.8,33.7,30.11,NNW,346,19.0,28.0,70,0.00,,,0.00,Wunderground v.1.15,2013-03-08 14:32:00,
2013-03-08 09:37:00,42.9,33.8,30.11,NNW,348,23.0,28.0,70,0.00,,,0.00,Wunderground v.1.15,2013-03-08 14:37:00,
2013-03-08 09:42:00,43.0,33.2,30.12,North,355,23.0,25.0,68,0.00,,,0.00,Wunderground v.1.15,2013-03-08 14:42:00,
2013-03-08 09:47:00,43.2,33.0,30.11,North,350,28.0,28.0,67,0.00,,,0.00,Wunderground v.1.15,2013-03-08 14:47:00,
2013-03-08 09:52:00,43.2,32.6,30.11,North,355,18.0,23.0,66,0.00,,,0.00,Wunderground v.1.15,2013-03-08 14:52:00,
2013-03-08 09:57:00,43.3,33.1,30.11,North,349,18.0,24.0,67,0.00,,,0.00,Wunderground v.1.15,2013-03-08 14:57:00,
2013-03-08 10:02:00,43.4,33.2,30.10,North,355,17.0,25.0,67,0.00,,,0.00,Wunderground v.1.15,2013-03-08 15:02:00,
2013-03-08 10:07:00,43.4,32.4,30.10,North,355,22.0,27.0,65,0.00,,,0.00,Wunderground v.1.15,2013-03-08 15:07:00,
2013-03-08 10:12:00,43.4,33.2,30.10,North,5,22.0,25.0,67,0.00,,,0.00,Wunderground v.1.15,2013-03-08 15:12:00,
2013-03-08 10:17:00,43.4,32.8,30.10,North,355,15.0,25.0,66,0.00,,,0.00,Wunderground v.1.15,2013-03-08 15:17:00,
2013-03-08 10:22:00,43.6,33.7,30.10,NNW,344,18.0,22.0,68,0.00,,,0.00,Wunderground v.1.15,2013-03-08 15:22:00,
2013-03-08 10:27:00,43.6,33.7,30.10,NNW,327,23.0,27.0,68,0.00,,,0.00,Wunderground v.1.15,2013-03-08 15:27:00,
2013-03-08 10:32:00,43.6,33.4,30.10,NNW,329,18.0,23.0,67,0.00,,,0.00,Wunderground v.1.15,2013-03-08 15:32:00,
2013-03-08 10:37:00,43.6,33.0,30.10,NNW,329,18.0,25.0,66,0.00,,,0.00,Wunderground v.1.15,2013-03-08 15:37:00,
2013-03-08 10:42:00,43.8,33.2,30.09,NNW,343,24.0,25.0,66,0.00,,,0.00,Wunderground v.1.15,2013-03-08 15:42:00,
2013-03-08 10:47:00,43.8,33.2,30.10,NNW,338,16.0,25.0,66,0.00,,,0.00,Wunderground v.1.15,2013-03-08 15:47:00,
2013-03-08 10:52:00,43.9,32.5,30.10,NNW,331,22.0,26.0,64,0.00,,,0.00,Wunderground v.1.15,2013-03-08 15:52:00,
2013-03-08 10:57:00,43.9,32.9,30.10,NNW,340,24.0,27.0,65,0.00,,,0.00,Wunderground v.1.15,2013-03-08 15:57:00,
2013-03-08 11:02:00,44.1,32.7,30.10,NNW,335,19.0,25.0,64,0.00,,,0.00,Wunderground v.1.15,2013-03-08 16:02:00,
2013-03-08 11:07:00,44.1,31.5,30.10,NNW,344,20.0,28.0,61,0.00,,,0.00,Wunderground v.1.15,2013-03-08 16:07:00,
2013-03-08 11:12:00,44.1,31.9,30.09,North,355,20.0,26.0,62,0.00,,,0.00,Wunderground v.1.15,2013-03-08 16:12:00,
2013-03-08 11:17:00,44.2,31.6,30.09,NNW,347,20.0,26.0,61,0.00,,,0.00,Wunderground v.1.15,2013-03-08 16:17:00,
2013-03-08 11:22:00,44.4,33.0,30.09,North,355,19.0,23.0,64,0.00,,,0.00,Wunderground v.1.15,2013-03-08 16:22:00,
2013-03-08 11:27:00,44.4,31.8,30.09,NNW,332,27.0,28.0,61,0.00,,,0.00,Wunderground v.1.15,2013-03-08 16:27:00,
2013-03-08 11:32:00,44.4,31.4,30.09,NNW,342,20.0,26.0,60,0.00,,,0.00,Wunderground v.1.15,2013-03-08 16:32:00,
2013-03-08 11:37:00,44.6,31.6,30.09,NNW,328,18.0,27.0,60,0.00,,,0.00,Wunderground v.1.15,2013-03-08 16:37:00,
2013-03-08 11:42:00,44.7,32.1,30.09,NNW,331,22.0,23.0,61,0.00,,,0.00,Wunderground v.1.15,2013-03-08 16:42:00,
2013-03-08 11:47:00,44.9,32.7,30.09,NW,321,24.0,29.0,62,0.00,,,0.00,Wunderground v.1.15,2013-03-08 16:47:00,
2013-03-08 11:52:00,45.1,32.8,30.08,NNW,341,21.0,24.0,62,0.00,,,0.00,Wunderground v.1.15,2013-03-08 16:52:00,
2013-03-08 11:57:00,45.3,32.6,30.08,NNW,343,20.0,27.0,61,0.00,,,0.00,Wunderground v.1.15,2013-03-08 16:57:00,
2013-03-08 12:02:00,45.5,32.8,30.08,NNW,346,23.0,28.0,61,0.00,,,0.00,Wunderground v.1.15,2013-03-08 17:02:00,
2013-03-08 12:07:00,45.6,32.1,30.08,North,349,25.0,33.0,59,0.00,,,0.00,Wunderground v.1.15,2013-03-08 17:07:00,
2013-03-08 12:12:00,45.7,32.2,30.07,NNW,346,23.0,33.0,59,0.00,,,0.00,Wunderground v.1.15,2013-03-08 17:12:00,
2013-03-08 12:17:00,45.7,33.0,30.07,NNW,344,20.0,33.0,61,0.00,,,0.00,Wunderground v.1.15,2013-03-08 17:17:00,
2013-03-08 12:22:00,45.9,33.6,30.07,NNW,346,30.0,30.0,62,0.00,,,0.00,Wunderground v.1.15,2013-03-08 17:22:00,
2013-03-08 12:27:00,45.9,32.4,30.07,North,351,24.0,34.0,59,0.00,,,0.00,Wunderground v.1.15,2013-03-08 17:27:00,
2013-03-08 12:32:00,45.9,32.8,30.06,North,360,24.0,32.0,60,0.00,,,0.00,Wunderground v.1.15,2013-03-08 17:32:00,
2013-03-08 12:37:00,46.0,32.0,30.06,NW,322,29.0,32.0,58,0.00,,,0.00,Wunderground v.1.15,2013-03-08 17:37:00,
2013-03-08 12:42:00,46.0,32.0,30.06,North,350,25.0,32.0,58,0.00,,,0.00,Wunderground v.1.15,2013-03-08 17:42:00,
2013-03-08 12:47:00,45.9,31.1,30.05,North,355,21.0,32.0,56,0.00,,,0.00,Wunderground v.1.15,2013-03-08 17:47:00,
2013-03-08 12:52:00,46.1,33.0,30.05,NNW,342,23.0,26.0,60,0.00,,,0.00,Wunderground v.1.15,2013-03-08 17:52:00,
2013-03-08 12:57:00,46.1,32.1,30.05,NNW,346,21.0,32.0,58,0.00,,,0.00,Wunderground v.1.15,2013-03-08 17:57:00,
2013-03-08 13:02:00,46.1,33.0,30.05,North,350,20.0,28.0,60,0.00,,,0.00,Wunderground v.1.15,2013-03-08 18:02:00,
2013-03-08 13:07:00,46.2,33.1,30.04,NNW,338,21.0,29.0,60,0.00,,,0.00,Wunderground v.1.15,2013-03-08 18:07:00,
2013-03-08 13:12:00,46.2,30.9,30.04,North,360,20.0,33.0,55,0.00,,,0.00,Wunderground v.1.15,2013-03-08 18:12:00,
2013-03-08 13:17:00,46.2,33.5,30.04,North,355,19.0,33.0,61,0.00,,,0.00,Wunderground v.1.15,2013-03-08 18:17:00,
2013-03-08 13:22:00,46.3,33.2,30.03,NNW,342,24.0,26.0,60,0.00,,,0.00,Wunderground v.1.15,2013-03-08 18:22:00,
2013-03-08 13:27:00,46.5,33.8,30.04,NNW,343,23.0,28.0,61,0.00,,,0.00,Wunderground v.1.15,2013-03-08 18:27:00,
2013-03-08 13:32:00,46.5,32.5,30.03,North,355,22.0,33.0,58,0.00,,,0.00,Wunderground v.1.15,2013-03-08 18:32:00,
2013-03-08 13:37:00,46.6,33.9,30.03,NNW,348,29.0,33.0,61,0.00,,,0.00,Wunderground v.1.15,2013-03-08 18:37:00,
2013-03-08 13:42:00,46.7,33.5,30.03,North,350,22.0,30.0,60,0.00,,,0.00,Wunderground v.1.15,2013-03-08 18:42:00,
2013-03-08 13:47:00,46.6,34.3,30.03,North,355,26.0,31.0,62,0.00,,,0.00,Wunderground v.1.15,2013-03-08 18:47:00,
2013-03-08 13:52:00,46.6,33.4,30.03,North,355,26.0,32.0,60,0.00,,,0.00,Wunderground v.1.15,2013-03-08 18:52:00,
2013-03-08 13:57:00,46.5,32.1,30.03,NNW,336,33.0,35.0,57,0.00,,,0.00,Wunderground v.1.15,2013-03-08 18:57:00,
2013-03-08 14:03:00,46.5,32.5,30.03,North,355,25.0,31.0,58,0.00,,,0.00,Wunderground v.1.15,2013-03-08 19:03:00,
2013-03-08 14:08:00,46.7,33.5,30.03,NNW,347,23.0,31.0,60,0.00,,,0.00,Wunderground v.1.15,2013-03-08 19:08:00,
2013-03-08 14:13:00,46.7,31.8,30.03,North,5,26.0,33.0,56,0.00,,,0.00,Wunderground v.1.15,2013-03-08 19:13:00,
2013-03-08 14:18:00,46.9,32.9,30.03,NNW,345,27.0,33.0,58,0.00,,,0.00,Wunderground v.1.15,2013-03-08 19:18:00,
2013-03-08 14:23:00,47.0,33.0,30.03,NNW,348,23.0,29.0,58,0.00,,,0.00,Wunderground v.1.15,2013-03-08 19:23:00,
2013-03-08 14:28:00,47.1,33.9,30.03,North,351,21.0,29.0,60,0.00,,,0.00,Wunderground v.1.15,2013-03-08 19:28:00,
2013-03-08 14:33:00,47.3,34.1,30.03,North,355,26.0,29.0,60,0.00,,,0.00,Wunderground v.1.15,2013-03-08 19:33:00,
2013-03-08 14:38:00,47.5,34.3,30.03,North,349,26.0,31.0,60,0.00,,,0.00,Wunderground v.1.15,2013-03-08 19:38:00,
2013-03-08 14:43:00,47.5,33.9,30.03,North,355,28.0,30.0,59,0.00,,,0.00,Wunderground v.1.15,2013-03-08 19:43:00,
2013-03-08 14:48:00,47.7,34.9,30.03,North,355,22.0,30.0,61,0.00,,,0.00,Wunderground v.1.15,2013-03-08 19:48:00,
2013-03-08 14:53:00,47.6,32.7,30.03,NNW,347,19.0,28.0,56,0.00,,,0.00,Wunderground v.1.15,2013-03-08 19:53:00,
2013-03-08 14:58:00,47.8,34.6,30.03,NNW,339,17.0,28.0,60,0.00,,,0.00,Wunderground v.1.15,2013-03-08 19:58:00,
2013-03-08 15:03:00,47.8,34.6,30.03,North,355,20.0,25.0,60,0.00,,,0.00,Wunderground v.1.15,2013-03-08 20:03:00,
2013-03-08 15:08:00,47.9,35.5,30.03,NNW,344,20.0,25.0,62,0.00,,,0.00,Wunderground v.1.15,2013-03-08 20:08:00,
2013-03-08 15:13:00,48.1,36.1,30.03,North,355,18.0,22.0,63,0.00,,,0.00,Wunderground v.1.15,2013-03-08 20:13:00,
2013-03-08 15:18:00,48.2,35.0,30.03,NNW,346,18.0,26.0,60,0.00,,,0.00,Wunderground v.1.15,2013-03-08 20:18:00,
2013-03-08 15:23:00,48.2,35.4,30.03,North,355,22.0,25.0,61,0.00,,,0.00,Wunderground v.1.15,2013-03-08 20:23:00,
2013-03-08 15:28:00,48.3,35.5,30.03,North,360,17.0,26.0,61,0.00,,,0.00,Wunderground v.1.15,2013-03-08 20:28:00,
2013-03-08 15:33:00,48.3,35.5,30.03,NNW,346,22.0,26.0,61,0.00,,,0.00,Wunderground v.1.15,2013-03-08 20:33:00,
2013-03-08 15:38:00,48.5,35.7,30.03,North,351,16.0,27.0,61,0.00,,,0.00,Wunderground v.1.15,2013-03-08 20:38:00,
2013-03-08 15:43:00,48.5,36.1,30.03,North,350,17.0,24.0,62,0.00,,,0.00,Wunderground v.1.15,2013-03-08 20:43:00,
2013-03-08 15:48:00,48.5,35.2,30.03,North,349,22.0,24.0,60,0.00,,,0.00,Wunderground v.1.15,2013-03-08 20:48:00,
2013-03-08 15:53:00,48.6,36.2,30.03,North,349,16.0,22.0,62,0.00,,,0.00,Wunderground v.1.15,2013-03-08 20:53:00,
2013-03-08 15:58:00,48.7,35.0,30.03,NNW,345,19.0,23.0,59,0.00,,,0.00,Wunderground v.1.15,2013-03-08 20:58:00,
2013-03-08 16:04:00,48.8,36.4,30.03,NNW,343,18.0,19.0,62,0.00,,,0.00,Wunderground v.1.15,2013-03-08 21:04:00,
2013-03-08 16:09:00,48.9,36.4,30.03,NNW,345,20.0,23.0,62,0.00,,,0.00,Wunderground v.1.15,2013-03-08 21:09:00,
2013-03-08 16:14:00,48.9,35.6,30.03,North,350,19.0,25.0,60,0.00,,,0.00,Wunderground v.1.15,2013-03-08 21:14:00,
2013-03-08 16:19:00,49.0,35.3,30.04,North,355,18.0,25.0,59,0.00,,,0.00,Wunderground v.1.15,2013-03-08 21:19:00,
2013-03-08 16:24:00,48.9,36.4,30.05,NNW,348,15.0,23.0,62,0.00,,,0.00,Wunderground v.1.15,2013-03-08 21:24:00,
2013-03-08 16:29:00,49.0,35.7,30.05,NNW,348,18.0,27.0,60,0.00,,,0.00,Wunderground v.1.15,2013-03-08 21:29:00,
2013-03-08 16:34:00,49.1,36.6,30.05,NNW,347,19.0,22.0,62,0.00,,,0.00,Wunderground v.1.15,2013-03-08 21:34:00,
2013-03-08 16:39:00,49.2,35.9,30.05,North,349,18.0,23.0,60,0.00,,,0.00,Wunderground v.1.15,2013-03-08 21:39:00,
2013-03-08 16:44:00,49.3,36.4,30.05,North,355,14.0,27.0,61,0.00,,,0.00,Wunderground v.1.15,2013-03-08 21:44:00,
2013-03-08 16:49:00,49.3,36.0,30.05,North,360,19.0,29.0,60,0.00,,,0.00,Wunderground v.1.15,2013-03-08 21:49:00,
2013-03-08 16:54:00,49.3,36.0,30.06,NNW,346,19.0,24.0,60,0.00,,,0.00,Wunderground v.1.15,2013-03-08 21:54:00,
2013-03-08 16:59:00,49.4,36.9,30.06,North,350,23.0,24.0,62,0.00,,,0.00,Wunderground v.1.15,2013-03-08 21:59:00,
2013-03-08 17:04:00,49.4,36.1,30.06,NNW,339,21.0,26.0,60,0.00,,,0.00,Wunderground v.1.15,2013-03-08 22:04:00,
2013-03-08 17:09:00,49.3,35.6,30.07,North,355,19.0,26.0,59,0.00,,,0.00,Wunderground v.1.15,2013-03-08 22:09:00,
2013-03-08 17:14:00,49.3,36.4,30.06,NNW,348,21.0,25.0,61,0.00,,,0.00,Wunderground v.1.15,2013-03-08 22:14:00,
2013-03-08 17:19:00,49.3,36.8,30.06,NNW,347,24.0,25.0,62,0.00,,,0.00,Wunderground v.1.15,2013-03-08 22:19:00,
2013-03-08 17:24:00,49.4,36.1,30.07,North,349,19.0,27.0,60,0.00,,,0.00,Wunderground v.1.15,2013-03-08 22:24:00,
2013-03-08 17:29:00,49.4,36.1,30.07,NNW,347,20.0,27.0,60,0.00,,,0.00,Wunderground v.1.15,2013-03-08 22:29:00,
2013-03-08 17:34:00,49.4,36.5,30.07,NNW,343,22.0,23.0,61,0.00,,,0.00,Wunderground v.1.15,2013-03-08 22:34:00,
2013-03-08 17:39:00,49.4,36.9,30.07,NNW,347,19.0,24.0,62,0.00,,,0.00,Wunderground v.1.15,2013-03-08 22:39:00,
2013-03-08 17:44:00,49.4,37.3,30.07,NNW,344,19.0,25.0,63,0.00,,,0.00,Wunderground v.1.15,2013-03-08 22:44:00,
2013-03-08 17:50:00,49.4,37.3,30.08,NNW,342,15.0,25.0,63,0.00,,,0.00,Wunderground v.1.15,2013-03-08 22:50:00,
2013-03-08 17:55:00,49.3,37.6,30.08,NNW,346,23.0,25.0,64,0.00,,,0.00,Wunderground v.1.15,2013-03-08 22:55:00,
2013-03-08 18:00:00,49.2,37.1,30.08,NNW,339,18.0,25.0,63,0.00,,,0.00,Wunderground v.1.15,2013-03-08 23:00:00,
2013-03-08 18:05:00,49.2,37.5,30.08,NNW,334,16.0,25.0,64,0.00,,,0.00,Wunderground v.1.15,2013-03-08 23:05:00,
2013-03-08 18:10:00,49.2,37.9,30.08,NNW,342,17.0,25.0,65,0.00,,,0.00,Wunderground v.1.15,2013-03-08 23:10:00,
2013-03-08 18:15:00,49.1,37.4,30.08,NNW,333,22.0,22.0,64,0.00,,,0.00,Wunderground v.1.15,2013-03-08 23:15:00,
2013-03-08 18:20:00,49.2,37.1,30.08,NNW,340,18.0,26.0,63,0.00,,,0.00,Wunderground v.1.15,2013-03-08 23:20:00,
2013-03-08 18:25:00,49.2,37.9,30.08,North,350,14.0,21.0,65,0.00,,,0.00,Wunderground v.1.15,2013-03-08 23:25:00,
2013-03-08 18:30:00,49.1,38.2,30.08,North,355,15.0,18.0,66,0.00,,,0.00,Wunderground v.1.15,2013-03-08 23:30:00,
2013-03-08 18:35:00,48.9,38.8,30.08,North,355,12.0,18.0,68,0.00,,,0.00,Wunderground v.1.15,2013-03-08 23:35:00,
2013-03-08 18:40:00,48.7,38.2,30.08,NNW,348,12.0,18.0,67,0.00,,,0.00,Wunderground v.1.15,2013-03-08 23:40:00,
2013-03-08 18:45:00,48.7,38.6,30.08,North,355,12.0,15.0,68,0.00,,,0.00,Wunderground v.1.15,2013-03-08 23:45:00,
2013-03-08 18:50:00,48.7,38.2,30.08,NNW,346,12.0,13.0,67,0.00,,,0.00,Wunderground v.1.15,2013-03-08 23:50:00,
2013-03-08 18:55:00,48.6,38.5,30.09,North,350,14.0,16.0,68,0.00,,,0.00,Wunderground v.1.15,2013-03-08 23:55:00,
2013-03-08 19:00:00,48.6,38.5,30.09,North,355,12.0,14.0,68,0.00,,,0.00,Wunderground v.1.15,2013-03-09 00:00:00,
2013-03-08 19:05:00,48.5,38.8,30.09,North,355,13.0,17.0,69,0.00,,,0.00,Wunderground v.1.15,2013-03-09 00:05:00,
2013-03-08 19:10:00,48.4,39.1,30.09,North,355,11.0,13.0,70,0.00,,,0.00,Wunderground v.1.15,2013-03-09 00:10:00,
2013-03-08 19:15:00,48.3,39.0,30.09,North,355,14.0,16.0,70,0.00,,,0.00,Wunderground v.1.15,2013-03-09 00:15:00,
2013-03-08 19:20:00,48.3,39.0,30.10,North,360,14.0,14.0,70,0.00,,,0.00,Wunderground v.1.15,2013-03-09 00:20:00,
2013-03-08 19:25:00,48.2,38.9,30.10,North,360,13.0,16.0,70,0.00,,,0.00,Wunderground v.1.15,2013-03-09 00:25:00,
2013-03-08 19:30:00,48.1,39.1,30.10,North,5,12.0,13.0,71,0.00,,,0.00,Wunderground v.1.15,2013-03-09 00:30:00,
2013-03-08 19:35:00,48.0,39.0,30.10,North,9,15.0,16.0,71,0.00,,,0.00,Wunderground v.1.15,2013-03-09 00:35:00,
2013-03-08 19:40:00,48.0,38.7,30.11,North,5,16.0,16.0,70,0.00,,,0.00,Wunderground v.1.15,2013-03-09 00:40:00,
2013-03-08 19:45:00,48.0,39.0,30.11,North,360,13.0,16.0,71,0.00,,,0.00,Wunderground v.1.15,2013-03-09 00:45:00,
2013-03-08 19:50:00,47.9,38.9,30.11,North,9,12.0,14.0,71,0.00,,,0.00,Wunderground v.1.15,2013-03-09 00:50:00,
2013-03-08 19:55:00,47.9,38.6,30.11,North,360,15.0,18.0,70,0.00,,,0.00,Wunderground v.1.15,2013-03-09 00:55:00,
2013-03-08 20:00:00,47.8,38.5,30.11,North,360,15.0,16.0,70,0.00,,,0.00,Wunderground v.1.15,2013-03-09 01:00:00,
2013-03-08 20:05:00,47.8,38.1,30.11,North,5,18.0,18.0,69,0.00,,,0.00,Wunderground v.1.15,2013-03-09 01:05:00,
2013-03-08 20:10:00,47.8,37.7,30.12,North,5,14.0,15.0,68,0.00,,,0.00,Wunderground v.1.15,2013-03-09 01:10:00,
2013-03-08 20:15:00,47.7,37.7,30.12,North,360,17.0,19.0,68,0.00,,,0.00,Wunderground v.1.15,2013-03-09 01:15:00,
2013-03-08 20:20:00,47.7,38.4,30.12,North,355,14.0,20.0,70,0.00,,,0.00,Wunderground v.1.15,2013-03-09 01:20:00,
2013-03-08 20:25:00,47.7,38.0,30.12,North,355,16.0,20.0,69,0.00,,,0.00,Wunderground v.1.15,2013-03-09 01:25:00,
2013-03-08 20:30:00,47.7,37.3,30.12,North,355,19.0,19.0,67,0.00,,,0.00,Wunderground v.1.15,2013-03-09 01:30:00,
2013-03-08 20:35:00,47.6,37.6,30.12,North,5,18.0,22.0,68,0.00,,,0.00,Wunderground v.1.15,2013-03-09 01:35:00,
2013-03-08 20:40:00,47.6,37.9,30.12,North,355,15.0,19.0,69,0.00,,,0.00,Wunderground v.1.15,2013-03-09 01:40:00,
2013-03-08 20:45:00,47.6,37.6,30.13,North,355,18.0,22.0,68,0.00,,,0.00,Wunderground v.1.15,2013-03-09 01:45:00,
2013-03-08 20:51:00,47.6,37.6,30.13,North,355,15.0,20.0,68,0.00,,,0.00,Wunderground v.1.15,2013-03-09 01:51:00,
2013-03-08 20:55:00,47.5,37.5,30.13,North,355,17.0,22.0,68,0.00,,,0.00,Wunderground v.1.15,2013-03-09 01:55:00,
2013-03-08 21:00:00,47.4,37.7,30.14,North,355,20.0,22.0,69,0.00,,,0.00,Wunderground v.1.15,2013-03-09 02:00:00,
2013-03-08 21:05:00,47.4,37.7,30.14,North,355,20.0,24.0,69,0.00,,,0.00,Wunderground v.1.15,2013-03-09 02:05:00,
2013-03-08 21:11:00,47.4,37.0,30.14,North,355,18.0,22.0,67,0.00,,,0.00,Wunderground v.1.15,2013-03-09 02:11:00,
2013-03-08 21:16:00,47.4,37.4,30.14,North,5,21.0,22.0,68,0.00,,,0.00,Wunderground v.1.15,2013-03-09 02:16:00,
2013-03-08 21:21:00,47.3,36.9,30.14,North,355,23.0,23.0,67,0.00,,,0.00,Wunderground v.1.15,2013-03-09 02:21:00,
2013-03-08 21:26:00,47.3,36.5,30.14,North,355,22.0,26.0,66,0.00,,,0.00,Wunderground v.1.15,2013-03-09 02:26:00,
2013-03-08 21:31:00,47.3,36.5,30.14,NNW,346,19.0,25.0,66,0.00,,,0.00,Wunderground v.1.15,2013-03-09 02:31:00,
2013-03-08 21:36:00,47.2,36.8,30.14,NNW,346,20.0,25.0,67,0.00,,,0.00,Wunderground v.1.15,2013-03-09 02:36:00,
2013-03-08 21:41:00,47.2,36.8,30.14,NNW,345,20.0,25.0,67,0.00,,,0.00,Wunderground v.1.15,2013-03-09 02:41:00,
2013-03-08 21:46:00,47.2,36.8,30.14,North,351,21.0,25.0,67,0.00,,,0.00,Wunderground v.1.15,2013-03-09 02:46:00,
2013-03-08 21:51:00,47.2,36.4,30.14,NNW,344,19.0,20.0,66,0.00,,,0.00,Wunderground v.1.15,2013-03-09 02:51:00,
2013-03-08 21:56:00,47.1,36.3,30.14,North,349,22.0,27.0,66,0.00,,,0.00,Wunderground v.1.15,2013-03-09 02:56:00,
2013-03-08 22:01:00,47.0,36.6,30.14,NNW,348,19.0,23.0,67,0.00,,,0.00,Wunderground v.1.15,2013-03-09 03:01:00,
2013-03-08 22:06:00,47.0,36.6,30.14,NNW,346,20.0,26.0,67,0.00,,,0.00,Wunderground v.1.15,2013-03-09 03:06:00,
2013-03-08 22:11:00,47.0,36.6,30.14,North,350,17.0,22.0,67,0.00,,,0.00,Wunderground v.1.15,2013-03-09 03:11:00,
2013-03-08 22:16:00,46.9,36.9,30.14,NNW,347,15.0,23.0,68,0.00,,,0.00,Wunderground v.1.15,2013-03-09 03:16:00,
2013-03-08 22:21:00,46.9,36.5,30.14,North,351,15.0,24.0,67,0.00,,,0.00,Wunderground v.1.15,2013-03-09 03:21:00,
2013-03-08 22:26:00,46.8,36.4,30.14,NNW,346,18.0,24.0,67,0.00,,,0.00,Wunderground v.1.15,2013-03-09 03:26:00,
2013-03-08 22:31:00,46.8,36.4,30.14,NNW,333,19.0,22.0,67,0.00,,,0.00,Wunderground v.1.15,2013-03-09 03:31:00,
2013-03-08 22:36:00,46.8,36.8,30.14,North,350,19.0,25.0,68,0.00,,,0.00,Wunderground v.1.15,2013-03-09 03:36:00,
2013-03-08 22:41:00,46.7,37.1,30.14,NNW,347,21.0,24.0,69,0.00,,,0.00,Wunderground v.1.15,2013-03-09 03:41:00,
2013-03-08 22:46:00,46.5,36.1,30.14,NNW,343,19.0,27.0,67,0.00,,,0.00,Wunderground v.1.15,2013-03-09 03:46:00,
2013-03-08 22:51:00,46.5,36.5,30.13,NNW,347,23.0,23.0,68,0.00,,,0.00,Wunderground v.1.15,2013-03-09 03:51:00,
2013-03-08 22:56:00,46.4,36.8,30.13,NNW,345,20.0,26.0,69,0.00,,,0.00,Wunderground v.1.15,2013-03-09 03:56:00,
2013-03-08 23:01:00,46.4,37.1,30.12,North,355,21.0,25.0,70,0.00,,,0.00,Wunderground v.1.15,2013-03-09 04:01:00,
2013-03-08 23:06:00,46.3,36.3,30.12,North,355,25.0,28.0,68,0.00,,,0.00,Wunderground v.1.15,2013-03-09 04:06:00,
2013-03-08 23:11:00,46.3,36.3,30.12,NNE,12,24.0,25.0,68,0.00,,,0.00,Wunderground v.1.15,2013-03-09 04:11:00,
2013-03-08 23:16:00,46.2,36.6,30.12,North,351,19.0,27.0,69,0.00,,,0.00,Wunderground v.1.15,2013-03-09 04:16:00,
2013-03-08 23:21:00,46.3,36.7,30.12,NNW,346,20.0,28.0,69,0.00,,,0.00,Wunderground v.1.15,2013-03-09 04:21:00,
2013-03-08 23:26:00,46.2,37.0,30.12,North,360,25.0,28.0,70,0.00,,,0.00,Wunderground v.1.15,2013-03-09 04:26:00,
2013-03-08 23:31:00,46.1,36.5,30.12,North,355,20.0,27.0,69,0.00,,,0.00,Wunderground v.1.15,2013-03-09 04:31:00,
2013-03-08 23:36:00,46.1,36.9,30.12,North,355,22.0,27.0,70,0.00,,,0.00,Wunderground v.1.15,2013-03-09 04:36:00,
2013-03-08 23:41:00,46.0,36.8,30.13,North,360,19.0,24.0,70,0.00,,,0.00,Wunderground v.1.15,2013-03-09 04:41:00,
2013-03-08 23:46:00,45.9,36.3,30.13,NNW,348,20.0,26.0,69,0.00,,,0.00,Wunderground v.1.15,2013-03-09 04:46:00,
2013-03-08 23:51:00,45.9,37.0,30.13,NNW,345,19.0,23.0,71,0.00,,,0.00,Wunderground v.1.15,2013-03-09 04:51:00,
2013-03-08 23:56:00,45.9,37.0,30.13,North,351,23.0,26.0,71,0.00,,,0.00,Wunderground v.1.15,2013-03-09 04:56:00,